C/2018 E1 ( ATLAS )

Japanese version
Home page
Updated on June 25, 2018

---------------------------------------------------------------------

* Profile

Discovery Date March 10, 2018
Magnitude 16.8 mag
Discoverer Asteroid Terrestrial-impact Last Alert System (ATLAS) search program

* Pictures

* Orbital Elements

Epoch 2018 May 2.0 TT = JDT 2458240.5
T 2018 Apr. 17.32323 TT                                 MPCW
q   2.7054419            (2000.0)            P               Q
z  +0.0183543      Peri.  299.47213     -0.26852558     -0.80983473
 +/-0.0000000      Node   146.84067     +0.77844267     +0.13650486
e   0.9503435      Incl.   72.47969     -0.56738085     +0.57055599
From 156 observations 2015 Aug. 11-2018 May 17, mean residual 0".3.

* Finding Charts

* Magnitudes Graph

        m1 = 11.5 + 5 log d + 7.5 log r

---------------------------------------------------------------------

The orbital elements are published on M.P.E.C. 2018-K95.
The charts are made with StellaNavigator Ver.10 (AstroArts).
The magnitudes graphs are made with Comet for Windows.

---------------------------------------------------------------------

Copyright(C) Seiichi Yoshida (comet@aerith.net). All rights reserved.